Location: LDNL
(36.4545°S, 141.6685°E)
Time: 02:12:41
(UTC+11:00)

Transit 4A - Visible Passes

Search period start: 06 February 2023 00:00
Search period end: 16 February 2023 00:00
Orbit: 870 x 973 km, 66.8° (Epoch: 04 February)

Date Brightness Start Highest point End Pass type
(mag) Time Alt. Az. Time Alt. Az. Time Alt. Az.
06 Feb 9.1 05:47:15 10° N 05:53:10 42° ENE 05:59:10 10° SE visible
07 Feb 8.4 05:56:00 10° NNW 06:02:16 64° ENE 06:08:38 10° SSE visible
08 Feb 10.4 04:23:14 10° NE 04:25:58 13° E 04:28:43 10° ESE visible
08 Feb 8.0 06:05:04 10° NNW 06:11:26 87° WSW 06:17:55 10° SSE visible
09 Feb 10.0 04:30:22 10° NNE 04:34:53 21° ENE 04:39:29 10° ESE visible
09 Feb 8.2 06:14:25 10° NW 06:20:42 60° WSW 06:27:04 10° SSE visible
10 Feb 9.4 04:40:01 18° NNE 04:43:51 32° ENE 04:49:26 10° SE visible
10 Feb 8.6 06:24:04 10° NW 06:30:02 41° SW 06:36:06 10° SSE visible
11 Feb 8.7 04:49:36 26° N 04:52:54 49° ENE 04:59:04 10° SE visible
12 Feb 8.1 04:59:08 35° N 05:02:01 74° ENE 05:08:27 10° SSE visible
13 Feb 10.1 03:25:03 15° ENE 03:25:38 16° ENE 03:29:12 10° ESE visible
13 Feb 7.9 05:08:35 38° NW 05:11:14 77° WSW 05:17:41 10° SSE visible
14 Feb 9.6 03:34:28 24° ENE 03:34:34 24° ENE 03:39:34 10° SE visible
14 Feb 8.3 05:17:59 34° WNW 05:20:31 52° WSW 05:26:48 10° SSE visible
15 Feb 9.0 03:43:49 37° ENE 03:43:49 37° ENE 03:49:23 10° SE visible
15 Feb 8.8 05:27:20 27° W 05:29:54 36° SW 05:35:47 10° SSE visible
